Time,TemperatureF,DewpointF,PressureIn,WindDirection,WindDirectionDegrees,WindSpeedMPH,WindSpeedGustMPH,Humidity,HourlyPrecipIn,Conditions,Clouds,dailyrainin,SoftwareType,DateUTC
2013-02-07 00:00:00,43.2,33.8,30.09,WSW,239,0.0,0.0,60,0.00,,,0.00,dv,2013-02-07 05:00:00,
2013-02-07 00:05:00,43.1,34.0,30.09,WSW,239,0.0,0.0,61,0.00,,,0.00,dv,2013-02-07 05:05:00,
2013-02-07 00:10:00,43.1,34.0,30.09,WSW,239,0.0,0.0,61,0.00,,,0.00,dv,2013-02-07 05:10:00,
2013-02-07 00:15:00,43.1,34.0,30.09,WSW,239,0.0,0.0,61,0.00,,,0.00,dv,2013-02-07 05:15:00,
2013-02-07 00:20:00,43.0,33.6,30.10,WSW,239,0.0,0.0,60,0.00,,,0.00,dv,2013-02-07 05:20:00,
2013-02-07 00:30:00,42.8,34.0,30.09,WSW,239,0.0,0.0,62,0.00,,,0.00,dv,2013-02-07 05:30:00,
2013-02-07 00:35:00,42.7,33.6,30.09,WSW,239,0.0,0.0,61,0.00,,,0.00,dv,2013-02-07 05:35:00,
2013-02-07 00:40:00,42.5,33.7,30.08,WSW,239,0.0,0.0,62,0.00,,,0.00,dv,2013-02-07 05:40:00,
2013-02-07 00:45:00,42.4,33.9,30.09,WSW,238,0.0,0.0,63,0.00,,,0.00,dv,2013-02-07 05:45:00,
2013-02-07 00:50:00,42.3,33.8,30.09,WSW,239,0.0,0.0,63,0.00,,,0.00,dv,2013-02-07 05:50:00,
2013-02-07 00:55:00,42.1,33.3,30.09,WSW,239,0.0,0.0,62,0.00,,,0.00,dv,2013-02-07 05:55:00,
2013-02-07 01:00:00,42.1,33.3,30.09,WSW,238,0.0,0.0,62,0.00,,,0.00,dv,2013-02-07 06:00:00,
2013-02-07 01:05:00,42.0,33.2,30.09,WSW,238,0.0,0.0,62,0.00,,,0.00,dv,2013-02-07 06:05:00,
2013-02-07 01:10:00,42.0,32.9,30.09,WSW,239,0.0,0.0,61,0.00,,,0.00,dv,2013-02-07 06:10:00,
2013-02-07 01:15:00,42.0,32.3,30.09,WSW,239,0.0,0.0,59,0.00,,,0.00,dv,2013-02-07 06:15:00,
2013-02-07 01:20:00,42.2,32.2,30.09,WSW,239,0.0,0.0,58,0.00,,,0.00,dv,2013-02-07 06:20:00,
2013-02-07 01:25:00,42.3,32.3,30.09,WSW,238,0.0,0.0,58,0.00,,,0.00,dv,2013-02-07 06:25:00,
2013-02-07 01:30:00,42.6,32.3,30.09,WSW,239,0.0,0.0,57,0.00,,,0.00,dv,2013-02-07 06:30:00,
2013-02-07 01:35:00,42.9,32.6,30.08,WSW,239,0.0,0.0,57,0.00,,,0.00,dv,2013-02-07 06:35:00,
2013-02-07 01:40:00,43.1,32.1,30.09,WSW,239,0.0,0.0,55,0.00,,,0.00,dv,2013-02-07 06:40:00,
2013-02-07 01:45:00,43.5,32.5,30.08,WSW,239,0.0,0.0,55,0.00,,,0.00,dv,2013-02-07 06:45:00,
2013-02-07 01:50:00,43.8,32.8,30.08,WSW,239,0.0,0.0,55,0.00,,,0.00,dv,2013-02-07 06:50:00,
2013-02-07 01:55:00,44.0,32.6,30.08,WSW,239,0.0,0.0,54,0.00,,,0.00,dv,2013-02-07 06:55:00,
2013-02-07 02:00:00,44.1,32.4,30.09,WSW,239,0.0,0.0,53,0.00,,,0.00,dv,2013-02-07 07:00:00,
2013-02-07 02:05:00,44.2,32.5,30.09,WSW,239,0.0,0.0,53,0.00,,,0.00,dv,2013-02-07 07:05:00,
2013-02-07 02:10:00,44.4,32.7,30.10,WSW,239,0.0,0.0,53,0.00,,,0.00,dv,2013-02-07 07:10:00,
2013-02-07 02:15:00,44.5,32.7,30.10,WSW,239,0.0,0.0,53,0.00,,,0.00,dv,2013-02-07 07:15:00,
2013-02-07 02:20:00,44.7,32.9,30.10,WSW,239,0.0,0.0,53,0.00,,,0.00,dv,2013-02-07 07:20:00,
2013-02-07 02:25:00,44.8,32.7,30.10,WSW,239,0.0,0.0,52,0.00,,,0.00,dv,2013-02-07 07:25:00,
2013-02-07 02:30:00,45.0,32.9,30.10,WSW,239,0.0,0.0,52,0.00,,,0.00,dv,2013-02-07 07:30:00,
2013-02-07 02:35:00,45.1,32.6,30.10,WSW,239,0.0,0.0,51,0.00,,,0.00,dv,2013-02-07 07:35:00,
2013-02-07 02:40:00,45.3,32.8,30.09,WSW,239,0.0,0.0,51,0.00,,,0.00,dv,2013-02-07 07:40:00,
2013-02-07 02:45:00,45.4,32.9,30.10,WSW,239,0.0,0.0,51,0.00,,,0.00,dv,2013-02-07 07:45:00,
2013-02-07 02:50:00,45.5,33.0,30.10,WSW,239,0.0,0.0,51,0.00,,,0.00,dv,2013-02-07 07:50:00,
2013-02-07 02:55:00,45.5,33.3,30.10,WSW,239,0.0,0.0,52,0.00,,,0.00,dv,2013-02-07 07:55:00,
2013-02-07 03:00:00,45.5,33.0,30.11,ENE,71,3.2,3.2,51,0.00,,,0.00,dv,2013-02-07 08:00:00,
2013-02-07 03:05:00,45.5,33.3,30.11,ENE,71,0.0,0.0,52,0.00,,,0.00,dv,2013-02-07 08:05:00,
2013-02-07 03:10:00,45.6,33.1,30.12,ENE,71,0.0,0.0,51,0.00,,,0.00,dv,2013-02-07 08:10:00,
2013-02-07 03:15:00,45.5,33.0,30.11,ENE,71,0.0,0.0,51,0.00,,,0.00,dv,2013-02-07 08:15:00,
2013-02-07 03:20:00,45.6,33.1,30.11,ENE,71,0.0,0.0,51,0.00,,,0.00,dv,2013-02-07 08:20:00,
2013-02-07 03:25:00,45.6,33.1,30.12,ENE,71,0.0,0.0,51,0.00,,,0.00,dv,2013-02-07 08:25:00,
2013-02-07 03:30:00,45.6,32.7,30.12,ENE,71,0.0,0.0,50,0.00,,,0.00,dv,2013-02-07 08:30:00,
2013-02-07 03:35:00,45.7,33.2,30.12,ENE,71,0.0,0.0,51,0.00,,,0.00,dv,2013-02-07 08:35:00,
2013-02-07 03:40:00,45.7,32.8,30.12,ENE,71,1.6,1.6,50,0.00,,,0.00,dv,2013-02-07 08:40:00,
2013-02-07 03:45:00,45.9,33.3,30.12,ENE,71,1.6,1.6,51,0.00,,,0.00,dv,2013-02-07 08:45:00,
2013-02-07 03:50:00,46.1,33.2,30.12,ENE,71,1.6,1.6,50,0.00,,,0.00,dv,2013-02-07 08:50:00,
2013-02-07 03:55:00,46.3,33.0,30.12,ENE,71,1.6,1.6,49,0.00,,,0.00,dv,2013-02-07 08:55:00,
2013-02-07 04:00:00,46.5,33.5,30.12,ENE,71,1.6,1.6,50,0.00,,,0.00,dv,2013-02-07 09:00:00,
2013-02-07 04:05:00,46.6,33.6,30.13,ENE,71,0.0,0.0,50,0.00,,,0.00,dv,2013-02-07 09:05:00,
2013-02-07 04:10:00,46.6,33.6,30.12,ENE,71,0.0,0.0,50,0.00,,,0.00,dv,2013-02-07 09:10:00,
2013-02-07 04:15:00,46.6,34.0,30.12,ENE,71,0.0,0.0,51,0.00,,,0.00,dv,2013-02-07 09:15:00,
2013-02-07 04:20:00,46.6,33.6,30.12,ENE,71,1.6,1.6,50,0.00,,,0.00,dv,2013-02-07 09:20:00,
2013-02-07 04:25:00,46.6,34.0,30.12,ENE,71,1.6,1.6,51,0.00,,,0.00,dv,2013-02-07 09:25:00,
2013-02-07 04:30:00,46.7,33.7,30.12,ENE,71,3.2,3.2,50,0.00,,,0.00,dv,2013-02-07 09:30:00,
2013-02-07 04:35:00,46.8,34.2,30.12,ENE,71,1.6,1.6,51,0.00,,,0.00,dv,2013-02-07 09:35:00,
2013-02-07 04:40:00,47.0,34.0,30.11,ENE,71,1.6,1.6,50,0.00,,,0.00,dv,2013-02-07 09:40:00,
2013-02-07 04:50:00,47.4,34.4,30.11,ENE,71,1.6,1.6,50,0.00,,,0.00,dv,2013-02-07 09:50:00,
2013-02-07 04:55:00,47.5,34.1,30.11,ENE,71,1.6,1.6,49,0.00,,,0.00,dv,2013-02-07 09:55:00,
2013-02-07 05:00:00,47.7,34.3,30.11,ENE,71,3.2,3.2,49,0.00,,,0.00,dv,2013-02-07 10:00:00,
2013-02-07 05:10:00,48.0,34.2,30.10,East,95,4.8,4.8,48,0.00,,,0.00,dv,2013-02-07 10:10:00,
2013-02-07 05:15:00,48.1,34.3,30.10,East,94,3.2,3.2,48,0.00,,,0.00,dv,2013-02-07 10:15:00,
2013-02-07 05:20:00,48.3,34.4,30.10,East,89,4.8,4.8,48,0.00,,,0.00,dv,2013-02-07 10:20:00,
2013-02-07 05:25:00,48.4,34.5,30.10,East,87,3.2,3.2,48,0.00,,,0.00,dv,2013-02-07 10:25:00,
2013-02-07 05:30:00,48.5,34.2,30.10,East,87,3.2,3.2,47,0.00,,,0.00,dv,2013-02-07 10:30:00,
2013-02-07 05:35:00,48.6,34.3,30.10,East,81,4.8,4.8,47,0.00,,,0.00,dv,2013-02-07 10:35:00,
2013-02-07 05:40:00,48.8,34.1,30.10,East,79,4.8,4.8,46,0.00,,,0.00,dv,2013-02-07 10:40:00,
2013-02-07 05:45:00,48.9,34.6,30.10,ENE,73,3.2,3.2,47,0.00,,,0.00,dv,2013-02-07 10:45:00,
2013-02-07 05:50:00,49.0,34.3,30.10,East,85,4.8,4.8,46,0.00,,,0.00,dv,2013-02-07 10:50:00,
2013-02-07 05:55:00,49.1,34.4,30.10,ENE,74,6.4,6.4,46,0.00,,,0.00,dv,2013-02-07 10:55:00,
2013-02-07 06:00:00,49.2,34.1,30.11,East,85,6.4,6.4,45,0.00,,,0.00,dv,2013-02-07 11:00:00,
2013-02-07 06:05:00,49.2,34.1,30.11,East,85,4.8,4.8,45,0.00,,,0.00,dv,2013-02-07 11:05:00,
2013-02-07 06:10:00,49.2,34.1,30.11,ENE,77,4.8,4.8,45,0.00,,,0.00,dv,2013-02-07 11:10:00,
2013-02-07 06:15:00,49.3,33.8,30.11,East,84,4.8,4.8,44,0.00,,,0.00,dv,2013-02-07 11:15:00,
2013-02-07 06:20:00,49.3,33.8,30.11,East,80,4.8,4.8,44,0.00,,,0.00,dv,2013-02-07 11:20:00,
2013-02-07 06:30:00,49.4,33.9,30.11,East,82,4.8,4.8,44,0.00,,,0.00,dv,2013-02-07 11:30:00,
2013-02-07 06:35:00,49.3,33.4,30.10,East,82,3.2,3.2,43,0.00,,,0.00,dv,2013-02-07 11:35:00,
2013-02-07 06:40:00,49.3,33.8,30.10,East,85,4.8,4.8,44,0.00,,,0.00,dv,2013-02-07 11:40:00,
2013-02-07 06:45:00,49.2,33.7,30.11,East,83,4.8,4.8,44,0.00,,,0.00,dv,2013-02-07 11:45:00,
2013-02-07 06:50:00,49.2,33.3,30.11,East,87,3.2,3.2,43,0.00,,,0.00,dv,2013-02-07 11:50:00,
2013-02-07 06:55:00,49.2,33.7,30.11,East,80,4.8,4.8,44,0.00,,,0.00,dv,2013-02-07 11:55:00,
2013-02-07 07:00:00,49.1,33.2,30.10,ENE,76,4.8,4.8,43,0.00,,,0.00,dv,2013-02-07 12:00:00,
2013-02-07 07:05:00,49.2,33.7,30.10,East,83,6.4,6.4,44,0.00,,,0.00,dv,2013-02-07 12:05:00,
2013-02-07 07:10:00,49.1,33.6,30.09,East,85,6.4,6.4,44,0.00,,,0.00,dv,2013-02-07 12:10:00,
2013-02-07 07:15:00,49.0,33.5,30.09,East,83,4.8,4.8,44,0.00,,,0.00,dv,2013-02-07 12:15:00,
2013-02-07 07:20:00,49.0,33.5,30.10,South,188,4.8,4.8,44,0.00,,,0.00,dv,2013-02-07 12:20:00,
2013-02-07 07:25:00,48.9,33.8,30.10,ENE,75,3.2,3.2,45,0.00,,,0.00,dv,2013-02-07 12:25:00,
2013-02-07 07:30:00,48.8,33.3,30.10,East,82,4.8,4.8,44,0.00,,,0.00,dv,2013-02-07 12:30:00,
2013-02-07 07:35:00,48.9,33.4,30.10,ENE,76,3.2,3.2,44,0.00,,,0.00,dv,2013-02-07 12:35:00,
2013-02-07 07:40:00,48.9,33.4,30.11,East,81,4.8,4.8,44,0.00,,,0.00,dv,2013-02-07 12:40:00,
2013-02-07 07:45:00,48.9,33.8,30.12,South,190,1.6,1.6,45,0.00,,,0.00,dv,2013-02-07 12:45:00,
2013-02-07 07:50:00,48.9,33.8,30.11,ENE,74,4.8,4.8,45,0.00,,,0.00,dv,2013-02-07 12:50:00,
2013-02-07 07:55:00,48.9,33.8,30.12,ENE,74,1.6,1.6,45,0.00,,,0.00,dv,2013-02-07 12:55:00,
2013-02-07 08:00:00,48.9,34.2,30.12,ENE,74,1.6,1.6,46,0.00,,,0.00,dv,2013-02-07 13:00:00,
2013-02-07 08:05:00,48.8,33.7,30.11,ENE,74,1.6,1.6,45,0.00,,,0.00,dv,2013-02-07 13:05:00,
2013-02-07 08:10:00,48.8,34.1,30.11,ENE,78,3.2,3.2,46,0.00,,,0.00,dv,2013-02-07 13:10:00,
2013-02-07 08:15:00,48.7,33.6,30.10,ENE,78,3.2,3.2,45,0.00,,,0.00,dv,2013-02-07 13:15:00,
2013-02-07 08:20:00,48.7,34.0,30.10,NE,51,3.2,3.2,46,0.00,,,0.00,dv,2013-02-07 13:20:00,
2013-02-07 08:25:00,48.7,34.0,30.11,ENE,70,4.8,4.8,46,0.00,,,0.00,dv,2013-02-07 13:25:00,
2013-02-07 08:30:00,48.8,34.1,30.11,East,79,4.8,4.8,46,0.00,,,0.00,dv,2013-02-07 13:30:00,
2013-02-07 08:35:00,48.9,34.2,30.11,East,83,4.8,4.8,46,0.00,,,0.00,dv,2013-02-07 13:35:00,
2013-02-07 08:40:00,49.0,34.7,30.11,East,83,3.2,3.2,47,0.00,,,0.00,dv,2013-02-07 13:40:00,
2013-02-07 08:45:00,49.0,34.3,30.11,East,85,4.8,4.8,46,0.00,,,0.00,dv,2013-02-07 13:45:00,
2013-02-07 08:50:00,49.0,35.1,30.10,East,86,3.2,3.2,48,0.00,,,0.00,dv,2013-02-07 13:50:00,
2013-02-07 08:55:00,48.9,34.2,30.11,ENE,77,4.8,4.8,46,0.00,,,0.00,dv,2013-02-07 13:55:00,
2013-02-07 09:00:00,48.9,36.4,30.10,ENE,78,3.2,3.2,52,0.00,,,0.00,dv,2013-02-07 14:00:00,
2013-02-07 09:05:00,48.7,35.2,30.11,East,82,6.4,6.4,49,0.00,,,0.00,dv,2013-02-07 14:05:00,
2013-02-07 09:10:00,48.6,35.8,30.10,East,83,3.2,3.2,51,0.00,,,0.00,dv,2013-02-07 14:10:00,
2013-02-07 09:15:00,48.4,35.6,30.10,East,94,4.8,4.8,51,0.00,,,0.00,dv,2013-02-07 14:15:00,
2013-02-07 09:20:00,48.3,36.2,30.10,East,82,6.4,6.4,53,0.00,,,0.00,dv,2013-02-07 14:20:00,
2013-02-07 09:25:00,48.0,36.6,30.10,East,83,4.8,4.8,55,0.00,,,0.00,dv,2013-02-07 14:25:00,
2013-02-07 09:30:00,47.7,37.3,30.10,East,81,3.2,3.2,58,0.00,,,0.00,dv,2013-02-07 14:30:00,
2013-02-07 09:35:00,47.4,37.4,30.09,East,83,4.8,4.8,59,0.01,,,0.01,dv,2013-02-07 14:35:00,
2013-02-07 09:40:00,47.0,37.0,30.10,East,83,3.2,3.2,59,0.01,,,0.01,dv,2013-02-07 14:40:00,
2013-02-07 09:45:00,46.7,37.6,30.10,East,83,3.2,3.2,62,0.01,,,0.01,dv,2013-02-07 14:45:00,
2013-02-07 09:50:00,46.4,38.5,30.09,East,83,1.6,1.6,66,0.01,,,0.01,dv,2013-02-07 14:50:00,
2013-02-07 09:55:00,46.1,38.2,30.09,East,83,3.2,3.2,66,0.02,,,0.02,dv,2013-02-07 14:55:00,
2013-02-07 10:00:00,45.8,37.6,30.08,East,88,3.2,3.2,65,0.02,,,0.02,dv,2013-02-07 15:00:00,
2013-02-07 10:05:00,45.6,38.6,30.08,East,85,4.8,4.8,69,0.02,,,0.02,dv,2013-02-07 15:05:00,
2013-02-07 10:10:00,45.4,38.4,30.07,East,85,3.2,3.2,69,0.02,,,0.02,dv,2013-02-07 15:10:00,
2013-02-07 10:15:00,45.2,38.4,30.07,East,85,1.6,1.6,70,0.03,,,0.03,dv,2013-02-07 15:15:00,
2013-02-07 10:20:00,45.1,39.1,30.07,East,85,1.6,1.6,73,0.03,,,0.03,dv,2013-02-07 15:20:00,
2013-02-07 10:25:00,44.9,38.7,30.07,ENE,69,3.2,3.2,72,0.03,,,0.03,dv,2013-02-07 15:25:00,
2013-02-07 10:30:00,44.8,38.8,30.07,ENE,68,3.2,3.2,73,0.03,,,0.03,dv,2013-02-07 15:30:00,
2013-02-07 10:35:00,44.8,39.1,30.07,ENE,68,1.6,1.6,74,0.02,,,0.03,dv,2013-02-07 15:35:00,
2013-02-07 10:40:00,44.8,38.8,30.07,East,94,6.4,6.4,73,0.02,,,0.03,dv,2013-02-07 15:40:00,
2013-02-07 10:45:00,44.9,38.9,30.07,East,94,3.2,3.2,73,0.02,,,0.03,dv,2013-02-07 15:45:00,
2013-02-07 10:50:00,45.0,39.3,30.07,East,92,3.2,3.2,74,0.02,,,0.03,dv,2013-02-07 15:50:00,
2013-02-07 10:55:00,45.1,39.1,30.07,East,89,4.8,4.8,73,0.01,,,0.03,dv,2013-02-07 15:55:00,
2013-02-07 11:00:00,45.1,39.1,30.07,East,93,6.4,6.4,73,0.01,,,0.03,dv,2013-02-07 16:00:00,
2013-02-07 11:05:00,45.2,39.2,30.07,ENE,72,3.2,3.2,73,0.01,,,0.03,dv,2013-02-07 16:05:00,
2013-02-07 11:10:00,45.3,39.8,30.06,East,88,4.8,4.8,75,0.02,,,0.04,dv,2013-02-07 16:10:00,
2013-02-07 11:15:00,45.3,39.8,30.07,East,86,3.2,3.2,75,0.01,,,0.04,dv,2013-02-07 16:15:00,
2013-02-07 11:20:00,45.3,39.8,30.07,SE,143,3.2,3.2,75,0.01,,,0.04,dv,2013-02-07 16:20:00,
2013-02-07 11:25:00,45.3,39.6,30.07,East,86,4.8,4.8,74,0.01,,,0.04,dv,2013-02-07 16:25:00,
2013-02-07 11:30:00,45.3,40.1,30.07,East,86,3.2,3.2,76,0.01,,,0.04,dv,2013-02-07 16:30:00,
2013-02-07 11:35:00,45.3,40.3,30.06,East,86,3.2,3.2,77,0.02,,,0.05,dv,2013-02-07 16:35:00,
2013-02-07 11:40:00,45.3,40.3,30.06,East,97,4.8,4.8,77,0.02,,,0.05,dv,2013-02-07 16:40:00,
2013-02-07 11:45:00,45.2,40.5,30.06,East,83,4.8,4.8,78,0.02,,,0.05,dv,2013-02-07 16:45:00,
2013-02-07 11:50:00,45.2,40.9,30.06,East,82,4.8,4.8,80,0.03,,,0.06,dv,2013-02-07 16:50:00,
2013-02-07 11:55:00,45.2,41.2,30.06,East,82,4.8,4.8,81,0.03,,,0.06,dv,2013-02-07 16:55:00,
2013-02-07 12:00:00,45.2,41.4,30.07,East,89,3.2,3.2,82,0.03,,,0.06,dv,2013-02-07 17:00:00,
2013-02-07 12:05:00,45.3,41.7,30.07,East,90,1.6,1.6,83,0.03,,,0.06,dv,2013-02-07 17:05:00,
2013-02-07 12:10:00,45.2,41.6,30.07,East,86,3.2,3.2,83,0.03,,,0.07,dv,2013-02-07 17:10:00,
2013-02-07 12:15:00,45.1,41.8,30.06,East,86,3.2,3.2,84,0.03,,,0.07,dv,2013-02-07 17:15:00,
2013-02-07 12:20:00,45.1,41.8,30.06,East,86,3.2,3.2,84,0.03,,,0.07,dv,2013-02-07 17:20:00,
2013-02-07 12:25:00,45.1,42.0,30.05,ENE,74,4.8,4.8,85,0.03,,,0.07,dv,2013-02-07 17:25:00,
2013-02-07 12:30:00,45.2,42.1,30.04,ENE,77,4.8,4.8,85,0.03,,,0.07,dv,2013-02-07 17:30:00,
2013-02-07 12:35:00,45.2,42.5,30.04,ENE,78,4.8,4.8,87,0.02,,,0.07,dv,2013-02-07 17:35:00,
2013-02-07 12:40:00,45.2,42.3,30.03,East,87,6.4,6.4,86,0.03,,,0.08,dv,2013-02-07 17:40:00,
2013-02-07 12:45:00,45.1,42.2,30.03,East,85,6.4,6.4,86,0.03,,,0.08,dv,2013-02-07 17:45:00,
2013-02-07 12:50:00,45.0,41.7,30.03,East,82,4.8,4.8,84,0.02,,,0.08,dv,2013-02-07 17:50:00,
2013-02-07 12:55:00,44.7,41.4,30.02,East,80,4.8,4.8,84,0.03,,,0.09,dv,2013-02-07 17:55:00,
2013-02-07 13:00:00,44.7,41.6,30.03,ENE,69,4.8,4.8,85,0.03,,,0.09,dv,2013-02-07 18:00:00,
2013-02-07 13:05:00,44.5,41.4,30.03,ENE,78,6.4,6.4,85,0.03,,,0.09,dv,2013-02-07 18:05:00,
2013-02-07 13:10:00,44.3,41.2,30.02,ENE,63,3.2,3.2,85,0.03,,,0.10,dv,2013-02-07 18:10:00,
2013-02-07 13:15:00,44.1,41.0,30.02,East,83,6.4,6.4,85,0.03,,,0.10,dv,2013-02-07 18:15:00,
2013-02-07 13:20:00,44.0,40.9,30.03,East,84,6.4,6.4,85,0.03,,,0.10,dv,2013-02-07 18:20:00,
2013-02-07 13:30:00,43.8,40.9,30.02,ESE,117,4.8,4.8,86,0.05,,,0.12,dv,2013-02-07 18:30:00,
2013-02-07 13:40:00,43.7,41.1,30.00,East,81,4.8,4.8,87,0.05,,,0.13,dv,2013-02-07 18:40:00,
2013-02-07 13:45:00,43.6,41.2,30.00,ENE,72,6.4,6.4,88,0.05,,,0.13,dv,2013-02-07 18:45:00,
2013-02-07 13:50:00,43.6,41.2,30.00,East,84,6.4,6.4,88,0.05,,,0.13,dv,2013-02-07 18:50:00,
2013-02-07 14:00:00,43.6,41.4,30.00,ENE,75,3.2,3.2,89,0.05,,,0.14,dv,2013-02-07 19:00:00,
2013-02-07 14:05:00,43.6,41.4,30.00,ENE,74,8.1,8.1,89,0.06,,,0.15,dv,2013-02-07 19:05:00,
2013-02-07 14:10:00,43.6,41.4,30.00,ENE,65,3.2,3.2,89,0.05,,,0.15,dv,2013-02-07 19:10:00,
2013-02-07 14:15:00,43.6,41.4,30.00,ENE,74,6.4,6.4,89,0.05,,,0.15,dv,2013-02-07 19:15:00,
2013-02-07 14:20:00,43.6,41.4,29.99,East,89,6.4,6.4,89,0.05,,,0.15,dv,2013-02-07 19:20:00,
2013-02-07 14:30:00,43.7,41.5,29.98,ENE,77,3.2,3.2,89,0.04,,,0.16,dv,2013-02-07 19:30:00,
2013-02-07 14:35:00,43.7,41.7,29.98,East,79,6.4,6.4,90,0.05,,,0.17,dv,2013-02-07 19:35:00,
2013-02-07 14:40:00,43.7,41.7,29.98,East,79,4.8,4.8,90,0.04,,,0.17,dv,2013-02-07 19:40:00,
2013-02-07 14:45:00,43.8,41.8,29.98,East,87,3.2,3.2,90,0.04,,,0.17,dv,2013-02-07 19:45:00,
2013-02-07 14:50:00,43.8,41.8,29.98,ESE,102,6.4,6.4,90,0.04,,,0.17,dv,2013-02-07 19:50:00,
2013-02-07 14:55:00,43.8,41.8,29.98,ENE,77,4.8,4.8,90,0.03,,,0.17,dv,2013-02-07 19:55:00,
2013-02-07 15:00:00,43.8,41.8,29.97,ENE,73,4.8,4.8,90,0.04,,,0.18,dv,2013-02-07 20:00:00,
2013-02-07 15:10:00,43.9,41.9,29.96,East,95,8.1,8.1,90,0.03,,,0.18,dv,2013-02-07 20:10:00,
2013-02-07 15:15:00,43.9,41.9,29.96,East,79,6.4,6.4,90,0.03,,,0.18,dv,2013-02-07 20:15:00,
2013-02-07 15:20:00,43.9,41.9,29.95,ENE,74,8.1,8.1,90,0.04,,,0.19,dv,2013-02-07 20:20:00,
2013-02-07 15:25:00,44.0,42.2,29.94,East,80,4.8,4.8,91,0.03,,,0.19,dv,2013-02-07 20:25:00,
2013-02-07 15:30:00,44.0,42.2,29.94,East,81,6.4,6.4,91,0.03,,,0.19,dv,2013-02-07 20:30:00,
2013-02-07 15:35:00,44.1,42.3,29.94,East,94,6.4,6.4,91,0.02,,,0.19,dv,2013-02-07 20:35:00,
2013-02-07 15:40:00,44.1,42.3,29.94,East,94,6.4,6.4,91,0.03,,,0.20,dv,2013-02-07 20:40:00,
2013-02-07 15:45:00,44.1,42.3,29.94,ENE,75,8.1,8.1,91,0.03,,,0.20,dv,2013-02-07 20:45:00,
2013-02-07 15:55:00,44.1,42.3,29.94,East,82,4.8,4.8,91,0.03,,,0.20,dv,2013-02-07 20:55:00,
2013-02-07 16:00:00,44.1,42.3,29.94,ENE,78,6.4,6.4,91,0.02,,,0.20,dv,2013-02-07 21:00:00,
2013-02-07 16:05:00,44.1,42.3,29.94,ENE,78,3.2,3.2,91,0.02,,,0.20,dv,2013-02-07 21:05:00,
2013-02-07 16:15:00,44.1,42.5,29.93,ENE,74,6.4,6.4,92,0.03,,,0.21,dv,2013-02-07 21:15:00,
2013-02-07 16:20:00,44.1,42.5,29.93,East,91,4.8,4.8,92,0.02,,,0.21,dv,2013-02-07 21:20:00,
2013-02-07 16:25:00,44.2,42.6,29.93,East,82,4.8,4.8,92,0.02,,,0.21,dv,2013-02-07 21:25:00,
2013-02-07 16:35:00,44.2,42.6,29.91,East,82,6.4,6.4,92,0.02,,,0.21,dv,2013-02-07 21:35:00,
2013-02-07 16:40:00,44.3,42.7,29.91,East,84,6.4,6.4,92,0.01,,,0.21,dv,2013-02-07 21:40:00,
2013-02-07 16:45:00,44.4,42.8,29.90,ENE,69,11.3,11.3,92,0.01,,,0.21,dv,2013-02-07 21:45:00,
2013-02-07 16:55:00,44.5,42.9,29.90,ENE,74,11.3,11.3,92,0.01,,,0.21,dv,2013-02-07 21:55:00,
2013-02-07 17:00:00,44.5,42.9,29.89,East,83,8.1,8.1,92,0.01,,,0.21,dv,2013-02-07 22:00:00,
2013-02-07 17:05:00,44.5,42.9,29.89,ENE,75,9.7,9.7,92,0.01,,,0.21,dv,2013-02-07 22:05:00,
2013-02-07 17:15:00,44.6,43.0,29.91,NE,47,6.4,6.4,92,0.00,,,0.21,dv,2013-02-07 22:15:00,
2013-02-07 17:20:00,44.7,43.1,29.91,East,100,6.4,6.4,92,0.00,,,0.21,dv,2013-02-07 22:20:00,
2013-02-07 17:25:00,44.7,43.1,29.91,East,98,4.8,4.8,92,0.00,,,0.21,dv,2013-02-07 22:25:00,
2013-02-07 17:30:00,44.8,43.2,29.91,East,86,6.4,6.4,92,0.00,,,0.21,dv,2013-02-07 22:30:00,
2013-02-07 17:35:00,44.8,43.2,29.91,ENE,74,4.8,4.8,92,0.00,,,0.21,dv,2013-02-07 22:35:00,
2013-02-07 17:45:00,45.0,43.4,29.91,SE,136,6.4,6.4,92,0.00,,,0.21,dv,2013-02-07 22:45:00,
2013-02-07 17:55:00,45.1,43.5,29.92,East,89,6.4,6.4,92,0.00,,,0.21,dv,2013-02-07 22:55:00,
2013-02-07 18:00:00,45.2,43.6,29.91,ENE,71,6.4,6.4,92,0.00,,,0.21,dv,2013-02-07 23:00:00,
2013-02-07 18:05:00,45.3,43.7,29.91,ENE,76,11.3,11.3,92,0.00,,,0.21,dv,2013-02-07 23:05:00,
2013-02-07 18:10:00,45.3,43.7,29.90,ENE,78,8.1,8.1,92,0.00,,,0.21,dv,2013-02-07 23:10:00,
2013-02-07 18:20:00,45.5,43.7,29.91,ENE,68,8.1,8.1,91,0.00,,,0.21,dv,2013-02-07 23:20:00,
2013-02-07 18:25:00,45.5,43.7,29.91,ENE,59,4.8,4.8,91,0.00,,,0.21,dv,2013-02-07 23:25:00,
2013-02-07 18:30:00,45.5,43.7,29.91,ENE,74,6.4,6.4,91,0.00,,,0.21,dv,2013-02-07 23:30:00,
2013-02-07 18:40:00,45.6,43.8,29.91,ENE,78,4.8,4.8,91,0.00,,,0.21,dv,2013-02-07 23:40:00,
2013-02-07 18:45:00,45.6,43.8,29.91,East,80,4.8,4.8,91,0.00,,,0.21,dv,2013-02-07 23:45:00,
2013-02-07 18:50:00,45.6,43.8,29.91,East,79,3.2,3.2,91,0.00,,,0.21,dv,2013-02-07 23:50:00,
2013-02-07 18:55:00,45.6,43.8,29.92,ENE,73,6.4,6.4,91,0.00,,,0.21,dv,2013-02-07 23:55:00,
2013-02-07 19:00:00,45.6,43.8,29.91,East,84,4.8,4.8,91,0.00,,,0.21,dv,2013-02-08 00:00:00,
2013-02-07 19:05:00,45.7,43.9,29.91,ENE,73,3.2,3.2,91,0.00,,,0.21,dv,2013-02-08 00:05:00,
2013-02-07 19:15:00,45.6,44.0,29.90,ENE,76,8.1,8.1,92,0.00,,,0.21,dv,2013-02-08 00:15:00,
2013-02-07 19:20:00,45.6,43.8,29.90,East,83,8.1,8.1,91,0.00,,,0.21,dv,2013-02-08 00:20:00,
2013-02-07 19:25:00,45.6,43.8,29.90,ENE,74,6.4,6.4,91,0.00,,,0.21,dv,2013-02-08 00:25:00,
2013-02-07 19:30:00,45.6,43.8,29.90,East,80,4.8,4.8,91,0.00,,,0.21,dv,2013-02-08 00:30:00,
2013-02-07 19:35:00,45.7,44.1,29.90,East,86,6.4,6.4,92,0.00,,,0.21,dv,2013-02-08 00:35:00,
2013-02-07 19:40:00,45.7,43.9,29.90,East,82,4.8,4.8,91,0.00,,,0.21,dv,2013-02-08 00:40:00,
2013-02-07 19:45:00,45.7,44.1,29.90,East,83,9.7,9.7,92,0.00,,,0.21,dv,2013-02-08 00:45:00,
2013-02-07 19:50:00,45.7,43.9,29.90,East,84,11.3,11.3,91,0.00,,,0.21,dv,2013-02-08 00:50:00,
2013-02-07 19:55:00,45.7,44.1,29.90,East,81,9.7,9.7,92,0.00,,,0.21,dv,2013-02-08 00:55:00,
2013-02-07 20:05:00,45.7,44.1,29.89,ENE,70,4.8,4.8,92,0.00,,,0.21,dv,2013-02-08 01:05:00,
2013-02-07 20:10:00,45.7,44.1,29.90,ENE,78,4.8,4.8,92,0.00,,,0.21,dv,2013-02-08 01:10:00,
2013-02-07 20:15:00,45.8,44.2,29.90,ENE,77,4.8,4.8,92,0.00,,,0.21,dv,2013-02-08 01:15:00,
2013-02-07 20:20:00,45.8,44.2,29.90,ENE,77,3.2,3.2,92,0.00,,,0.21,dv,2013-02-08 01:20:00,
2013-02-07 20:25:00,45.8,44.2,29.90,ENE,77,4.8,4.8,92,0.00,,,0.21,dv,2013-02-08 01:25:00,
2013-02-07 20:30:00,45.8,44.2,29.90,ENE,75,6.4,6.4,92,0.00,,,0.21,dv,2013-02-08 01:30:00,
2013-02-07 20:35:00,45.9,44.3,29.90,ENE,74,6.4,6.4,92,0.00,,,0.21,dv,2013-02-08 01:35:00,
2013-02-07 20:40:00,45.9,44.1,29.90,East,101,3.2,3.2,91,0.00,,,0.21,dv,2013-02-08 01:40:00,
2013-02-07 20:45:00,46.0,44.4,29.90,ESE,105,3.2,3.2,92,0.00,,,0.21,dv,2013-02-08 01:45:00,
2013-02-07 20:50:00,46.0,44.2,29.90,ENE,77,3.2,3.2,91,0.00,,,0.21,dv,2013-02-08 01:50:00,
2013-02-07 20:55:00,46.1,44.3,29.90,ENE,72,4.8,4.8,91,0.00,,,0.21,dv,2013-02-08 01:55:00,
2013-02-07 21:00:00,46.1,44.3,29.90,East,85,4.8,4.8,91,0.00,,,0.21,dv,2013-02-08 02:00:00,
2013-02-07 21:05:00,46.2,44.4,29.90,ESE,102,4.8,4.8,91,0.00,,,0.21,dv,2013-02-08 02:05:00,
2013-02-07 21:10:00,46.2,44.4,29.90,East,81,3.2,3.2,91,0.00,,,0.21,dv,2013-02-08 02:10:00,
2013-02-07 21:15:00,46.3,44.5,29.90,East,81,3.2,3.2,91,0.00,,,0.21,dv,2013-02-08 02:15:00,
2013-02-07 21:20:00,46.3,44.5,29.90,ESE,104,4.8,4.8,91,0.00,,,0.21,dv,2013-02-08 02:20:00,
2013-02-07 21:25:00,46.3,44.5,29.90,ENE,77,6.4,6.4,91,0.00,,,0.21,dv,2013-02-08 02:25:00,
2013-02-07 21:35:00,46.4,44.4,29.90,East,80,4.8,4.8,90,0.00,,,0.21,dv,2013-02-08 02:35:00,
2013-02-07 21:40:00,46.4,44.4,29.90,SE,134,4.8,4.8,90,0.00,,,0.21,dv,2013-02-08 02:40:00,
2013-02-07 21:45:00,46.4,44.4,29.90,East,80,6.4,6.4,90,0.00,,,0.21,dv,2013-02-08 02:45:00,
2013-02-07 21:50:00,46.5,44.5,29.90,ENE,77,4.8,4.8,90,0.00,,,0.21,dv,2013-02-08 02:50:00,
2013-02-07 22:00:00,46.5,44.5,29.90,East,81,6.4,6.4,90,0.00,,,0.21,dv,2013-02-08 03:00:00,
2013-02-07 22:05:00,46.6,44.3,29.91,ENE,73,6.4,6.4,89,0.00,,,0.21,dv,2013-02-08 03:05:00,
2013-02-07 22:10:00,46.6,44.3,29.91,ENE,78,3.2,3.2,89,0.00,,,0.21,dv,2013-02-08 03:10:00,
2013-02-07 22:15:00,46.7,44.4,29.91,ENE,77,4.8,4.8,89,0.00,,,0.21,dv,2013-02-08 03:15:00,
2013-02-07 22:20:00,46.7,44.4,29.90,East,84,4.8,4.8,89,0.00,,,0.21,dv,2013-02-08 03:20:00,
2013-02-07 22:25:00,46.7,44.2,29.89,ENE,78,4.8,4.8,88,0.00,,,0.21,dv,2013-02-08 03:25:00,
2013-02-07 22:30:00,46.7,44.4,29.90,East,79,6.4,6.4,89,0.00,,,0.21,dv,2013-02-08 03:30:00,
2013-02-07 22:35:00,46.7,44.2,29.90,ENE,71,12.9,12.9,88,0.00,,,0.21,dv,2013-02-08 03:35:00,
2013-02-07 22:40:00,46.7,44.4,29.89,East,79,4.8,4.8,89,0.00,,,0.21,dv,2013-02-08 03:40:00,
2013-02-07 22:50:00,46.6,44.3,29.89,East,86,4.8,4.8,89,0.00,,,0.21,dv,2013-02-08 03:50:00,
2013-02-07 22:55:00,46.6,44.3,29.89,East,87,3.2,3.2,89,0.00,,,0.21,dv,2013-02-08 03:55:00,
2013-02-07 23:00:00,46.5,44.2,29.89,East,88,3.2,3.2,89,0.00,,,0.21,dv,2013-02-08 04:00:00,
2013-02-07 23:05:00,46.5,44.2,29.89,East,89,1.6,1.6,89,0.00,,,0.21,dv,2013-02-08 04:05:00,
2013-02-07 23:10:00,46.5,44.2,29.89,East,85,4.8,4.8,89,0.00,,,0.21,dv,2013-02-08 04:10:00,
2013-02-07 23:15:00,46.5,44.2,29.90,ENE,71,3.2,3.2,89,0.00,,,0.21,dv,2013-02-08 04:15:00,
2013-02-07 23:20:00,46.5,44.2,29.90,ENE,71,3.2,3.2,89,0.00,,,0.21,dv,2013-02-08 04:20:00,
2013-02-07 23:25:00,46.5,44.2,29.89,ENE,71,3.2,3.2,89,0.00,,,0.21,dv,2013-02-08 04:25:00,
2013-02-07 23:30:00,46.4,44.1,29.89,ENE,71,1.6,1.6,89,0.00,,,0.21,dv,2013-02-08 04:30:00,
2013-02-07 23:35:00,46.4,44.1,29.89,ENE,71,3.2,3.2,89,0.00,,,0.21,dv,2013-02-08 04:35:00,
2013-02-07 23:40:00,46.4,44.1,29.89,ENE,78,4.8,4.8,89,0.00,,,0.21,dv,2013-02-08 04:40:00,
2013-02-07 23:45:00,46.4,44.1,29.90,East,83,4.8,4.8,89,0.00,,,0.21,dv,2013-02-08 04:45:00,
2013-02-07 23:50:00,46.4,43.9,29.89,East,79,3.2,3.2,88,0.00,,,0.21,dv,2013-02-08 04:50:00,
2013-02-07 23:55:00,46.4,43.7,29.89,East,89,6.4,6.4,87,0.00,,,0.21,dv,2013-02-08 04:55:00,